Location: Auckland
(36.8670°S, 174.7670°E)
Time: 01:20:07
(UTC+12:00)

NOSS 2-1 (E) - Pass Details

Date: 24 April 2019
Orbit: 471 x 1733 km, 63.3° (Epoch: 14 May)

Event Time Altitude Azimuth Distance (km) Brightness Sun altitude
Rises 22:18:54 0° 211° (SSW) 4,666 8.5 -53.9°
Reaches altitude 10° 22:23:39 10° 192° (SSW) 3,442 7.6 -54.7°
Enters shadow 22:24:00 11° 190° (S) 3,362 7.5 -54.8°
